Tracking 18850 objects as of 22-Nov-2017
HD Live streaming from Space Station
objects crossing your sky now

OICETS

Track OICETS now!
10-day predictions
OICETS is classified as:


NORAD ID: 28809
Int'l Code: 2005-031A
Perigee: 569.4 km
Apogee: 579.5 km
Inclination: 98.0 °
Period: 96.0 minutes
Semi major axis: 6945 km
RCS: 1.711 m2 (large)
Launch date: August 23, 2005
Source: Japan (JPN)
Launch site: TYURATAM MISSILE AND SPACE COMPLEX (TTMTR)

Study inter-satellite communications.
aabbcc
Your satellite tracking list
Your tracking list is empty




NASA's NSSDC Master Catalog

Two Line Element Set (TLE):
1 28809U 05031A   17325.75535629 +.00000659 +00000-0 +58303-4 0  9999
2 28809 097.9682 041.0807 0007262 219.7860 140.2831 14.99859659667744
Source of the keplerian elements: AFSPC